"datetime","# probes","# resolvers","can_ipv6","can_ipv6_prbs","can_tcp","can_tcp_prbs","can_tcp6","can_tcp6_prbs","does_ecs","does_ecs_prbs","does_flagday","does_flagday_prbs","does_rov4","does_rov4_prbs","does_rov6","does_rov6_prbs","does_qnamemin","doesnt_qnamemin","does_qnamemin_prbs","doesnt_qnamemin_prbs","does_nxdomain","doesnt_nxdomain","does_nxdomain_prbs","doesnt_nxdomain_prbs","has_ta_19036","hasnt_ta_19036","has_ta_19036_prbs","hasnt_ta_19036_prbs","has_ta_20326","hasnt_ta_20326","has_ta_20326_prbs","hasnt_ta_20326_prbs","can_rsamd5","cannot_rsamd5","broken_rsamd5","can_rsamd5_prbs","cannot_rsamd5_prbs","broken_rsamd5_prbs","can_dsa","cannot_dsa","broken_dsa","can_dsa_prbs","cannot_dsa_prbs","broken_dsa_prbs","can_rsasha1","cannot_rsasha1","broken_rsasha1","can_rsasha1_prbs","cannot_rsasha1_prbs","broken_rsasha1_prbs","can_dsansec3","cannot_dsansec3","broken_dsansec3","can_dsansec3_prbs","cannot_dsansec3_prbs","broken_dsansec3_prbs","can_rsansec3","cannot_rsansec3","broken_rsansec3","can_rsansec3_prbs","cannot_rsansec3_prbs","broken_rsansec3_prbs","can_rsasha256","cannot_rsasha256","broken_rsasha256","can_rsasha256_prbs","cannot_rsasha256_prbs","broken_rsasha256_prbs","can_rsasha512","cannot_rsasha512","broken_rsasha512","can_rsasha512_prbs","cannot_rsasha512_prbs","broken_rsasha512_prbs","can_eccgost","cannot_eccgost","broken_eccgost","can_eccgost_prbs","cannot_eccgost_prbs","broken_eccgost_prbs","can_ecdsa256","cannot_ecdsa256","broken_ecdsa256","can_ecdsa256_prbs","cannot_ecdsa256_prbs","broken_ecdsa256_prbs","can_ecdsa384","cannot_ecdsa384","broken_ecdsa384","can_ecdsa384_prbs","cannot_ecdsa384_prbs","broken_ecdsa384_prbs","can_ed25519","cannot_ed25519","broken_ed25519","can_ed25519_prbs","cannot_ed25519_prbs","broken_ed25519_prbs","can_ed448","cannot_ed448","broken_ed448","can_ed448_prbs","cannot_ed448_prbs","broken_ed448_prbs","can_gost","cannot_gost","broken_gost","can_gost_prbs","cannot_gost_prbs","broken_gost_prbs","can_sha384","cannot_sha384","broken_sha384","can_sha384_prbs","cannot_sha384_prbs","broken_sha384_prbs","is_internal","is_forwarding","is_external","is_internal_prbs","is_forwarding_prbs","is_external_prbs"
2017-06-20T23:59:51Z,29,59,24,25,59,29,24,24,0,4,0,0,0,0,0,0,0,59,0,29,0,59,0,29,0,0,0,0,0,0,0,0,20,39,0,19,26,4,27,32,0,25,22,1,27,32,0,26,22,1,27,32,0,25,22,1,27,32,0,26,22,1,27,32,0,26,22,1,27,32,0,26,22,1,26,33,0,24,23,1,27,32,0,26,22,1,27,32,0,26,22,1,0,59,0,0,29,1,0,59,0,0,29,1,25,32,0,24,22,1,27,32,0,26,22,1,10,1,48,7,2,25
2017-06-21T23:59:52Z,29,59,24,25,59,29,24,24,0,4,0,0,0,0,0,0,0,59,0,29,0,59,0,29,0,0,0,0,0,0,0,0,20,39,0,19,26,4,27,32,0,25,22,1,27,32,0,26,22,1,27,32,0,25,22,1,27,32,0,26,22,1,27,32,0,26,22,1,27,32,0,26,22,1,26,33,0,24,23,1,27,32,0,26,22,1,27,32,0,26,22,1,0,59,0,0,29,1,0,59,0,0,29,1,25,32,0,24,22,1,27,32,0,26,22,1,10,1,48,7,3,25
2017-06-22T23:59:59Z,30,60,24,25,60,30,24,24,0,4,0,0,0,0,0,0,0,60,0,30,0,60,0,30,0,0,0,0,0,0,0,0,20,40,0,19,27,4,27,33,0,25,23,1,27,33,0,26,23,1,27,33,0,25,23,1,27,33,0,26,23,1,27,33,0,26,23,1,27,33,0,26,23,1,26,34,0,24,24,1,27,33,0,26,23,1,27,33,0,26,23,1,0,60,0,0,30,1,0,60,0,0,30,1,26,34,0,25,24,1,27,33,0,26,23,1,10,1,49,7,4,26
2017-06-23T23:59:50Z,29,60,24,25,60,29,24,24,0,4,0,0,0,0,0,0,0,59,0,29,0,60,0,29,0,0,0,0,0,0,0,0,20,40,0,19,26,4,28,32,0,25,22,1,28,32,0,26,22,1,28,32,0,25,22,1,28,32,0,26,22,1,28,32,0,26,22,1,28,32,0,26,22,1,27,33,0,24,23,1,28,32,0,26,22,1,28,32,0,26,22,1,0,60,0,0,29,1,0,60,0,0,29,1,26,33,0,25,23,1,27,32,0,26,22,1,10,1,49,7,4,25
2017-06-24T23:59:52Z,29,59,24,25,59,29,24,24,0,4,0,0,0,0,0,0,0,59,0,29,0,59,0,29,0,0,0,0,0,0,0,0,20,39,0,20,26,4,27,32,0,26,22,1,27,32,0,27,22,1,27,32,0,26,22,1,27,32,0,27,22,1,27,32,0,27,22,1,27,32,0,27,22,1,26,33,0,25,23,1,27,32,0,27,22,1,27,32,0,27,22,1,0,59,0,0,29,1,0,59,0,0,29,1,26,33,0,26,23,1,27,32,0,27,22,1,10,1,48,7,3,25
2017-06-25T23:59:52Z,28,57,23,24,57,28,23,23,0,4,0,0,0,0,0,0,0,57,0,28,0,57,0,28,0,0,0,0,0,0,0,0,20,37,0,19,25,4,27,30,0,25,21,1,27,30,0,26,21,1,27,30,0,25,21,1,27,30,0,26,21,1,27,30,0,26,21,1,27,30,0,26,21,1,26,31,0,24,22,1,27,30,0,26,21,1,27,30,0,26,21,1,0,57,0,0,28,1,0,57,0,0,28,1,26,31,0,25,22,1,27,30,0,26,21,1,10,1,46,7,3,24
2017-06-26T23:59:52Z,29,58,22,25,58,29,22,24,0,4,0,0,0,0,0,0,0,58,0,29,0,58,0,29,0,0,0,0,0,0,0,0,19,39,0,19,26,4,26,32,0,25,22,1,26,32,0,26,22,1,26,32,0,25,22,1,26,32,0,26,22,1,26,32,0,26,22,1,26,32,0,26,22,1,25,33,0,24,23,1,26,32,0,26,22,1,26,32,0,26,22,1,0,58,0,0,29,1,0,58,0,0,29,1,25,33,0,25,23,1,26,32,0,26,22,1,10,1,47,7,4,25
2017-06-27T23:59:50Z,30,60,23,26,60,30,23,25,0,4,0,0,0,0,0,0,0,60,0,30,0,60,0,30,0,0,0,0,0,0,0,0,20,40,0,20,27,4,27,33,0,26,23,1,27,33,0,27,23,1,27,33,0,26,23,1,27,33,0,27,23,1,27,33,0,27,23,1,27,33,0,27,23,1,26,34,0,25,24,1,27,33,0,27,23,1,27,33,0,27,23,1,0,60,0,0,30,1,0,60,0,0,30,1,26,34,0,26,24,1,27,33,0,27,23,1,10,1,49,7,3,26
2017-06-28T23:59:50Z,28,57,23,25,57,28,23,24,0,3,0,0,0,0,0,0,0,57,0,28,0,57,0,28,0,0,0,0,0,0,0,0,20,37,0,20,25,3,26,31,0,25,21,1,26,31,0,26,21,1,26,31,0,25,21,1,26,31,0,26,21,1,26,31,0,26,21,1,26,31,0,26,21,1,25,32,0,24,22,1,26,31,0,26,21,1,26,31,0,26,21,1,0,57,0,0,28,1,0,57,0,0,28,1,25,32,0,25,22,1,26,31,0,27,21,1,8,1,48,5,3,24
2017-06-29T23:59:51Z,28,58,23,24,58,28,23,24,0,3,0,0,0,0,0,0,0,57,0,28,0,58,0,28,0,0,0,0,0,0,0,0,20,38,0,20,25,3,27,31,0,25,21,1,27,31,0,26,21,1,27,31,0,25,21,1,27,31,0,26,21,1,27,31,0,26,21,1,27,31,0,26,21,1,26,32,0,24,22,1,27,31,0,26,21,1,27,31,0,26,21,1,0,58,0,0,28,1,0,58,0,0,28,1,25,32,0,25,22,1,26,31,0,26,21,1,8,1,49,5,3,24
2017-06-30T23:59:50Z,29,59,23,25,59,29,23,25,0,4,0,0,0,0,0,0,0,59,0,29,0,59,0,29,0,0,0,0,0,0,0,0,20,39,0,20,26,4,27,32,0,26,22,1,27,32,0,27,22,1,27,32,0,26,22,1,27,32,0,27,22,1,27,32,0,27,22,1,27,32,0,27,22,1,26,33,0,25,23,1,27,32,0,27,22,1,27,32,0,27,22,1,0,59,0,0,29,1,0,59,0,0,29,1,26,33,0,26,23,1,27,32,0,27,22,1,10,1,48,6,3,25
2017-07-01T23:59:52Z,29,59,23,25,59,29,23,25,0,4,0,0,0,0,0,0,0,59,0,29,0,59,0,29,0,0,0,0,0,0,0,0,20,39,0,20,26,4,27,32,0,26,22,1,27,32,0,27,22,1,27,32,0,26,22,1,27,32,0,27,22,1,27,32,0,27,22,1,27,32,0,27,22,1,26,33,0,25,23,1,27,32,0,27,22,1,27,32,0,27,22,1,0,59,0,0,29,1,0,59,0,0,29,1,26,33,0,26,23,1,27,32,0,27,22,1,10,1,48,6,3,25
2017-07-02T23:59:51Z,29,60,24,25,60,29,24,25,0,3,0,0,0,0,0,0,0,59,0,29,0,60,0,29,0,0,0,0,0,0,0,0,21,39,0,21,26,3,29,31,0,26,21,1,29,31,0,27,21,1,29,31,0,26,21,1,29,31,0,27,21,1,29,31,0,27,21,1,29,31,0,27,21,1,28,32,0,25,22,1,29,31,0,27,21,1,29,31,0,27,21,1,0,60,0,0,29,1,0,60,0,0,29,1,27,32,0,26,22,1,28,31,0,27,21,1,8,1,51,5,3,25
2017-07-03T23:59:52Z,29,59,24,25,59,29,24,25,0,3,0,0,0,0,0,0,0,59,0,29,0,59,0,29,0,0,0,0,0,0,0,0,21,38,0,21,26,3,28,31,0,26,21,1,28,31,0,27,21,1,28,31,0,26,21,1,28,31,0,27,21,1,28,31,0,27,21,1,28,31,0,27,21,1,27,32,0,25,22,1,28,31,0,27,21,1,28,31,0,27,21,1,0,59,0,0,29,1,0,59,0,0,29,1,27,32,0,26,22,1,28,31,0,27,21,1,8,1,50,5,3,25
2017-07-04T23:59:52Z,29,60,24,25,60,29,24,25,0,3,0,0,0,0,0,0,0,59,0,29,0,60,0,29,0,0,0,0,0,0,0,0,21,39,0,21,26,3,29,31,0,26,21,1,29,31,0,27,21,1,29,31,0,26,21,1,29,31,0,27,21,1,29,31,0,27,21,1,29,31,0,27,21,1,28,32,0,25,22,1,29,31,0,27,21,1,29,31,0,27,21,1,0,60,0,0,29,1,0,60,0,0,29,1,27,32,0,26,22,1,28,31,0,27,21,1,8,1,51,5,3,25
2017-07-05T23:59:51Z,29,59,24,25,59,29,24,25,0,3,0,0,0,0,0,0,0,59,0,29,0,59,0,29,0,0,0,0,0,0,0,0,21,38,0,21,26,3,28,31,0,26,21,1,28,31,0,27,21,1,28,31,0,26,21,1,28,31,0,27,21,1,28,31,0,27,21,1,28,31,0,27,21,1,27,32,0,25,22,1,28,31,0,27,21,1,28,31,0,27,21,1,0,59,0,0,29,1,0,59,0,0,29,1,27,32,0,26,22,1,28,31,0,27,21,1,8,1,50,5,3,25
2017-07-06T23:59:52Z,30,61,25,26,61,30,25,26,0,3,0,0,0,0,0,0,0,61,0,30,0,61,0,30,0,0,0,0,0,0,0,0,22,39,0,22,27,3,29,32,0,27,22,1,29,32,0,28,22,1,29,32,0,27,22,1,29,32,0,28,22,1,29,32,0,28,22,1,29,32,0,28,22,1,28,33,0,26,23,1,29,32,0,28,22,1,29,32,0,28,22,1,0,61,0,0,30,1,0,61,0,0,30,1,28,33,0,27,23,1,29,32,0,28,22,1,8,1,52,5,4,26
2017-07-07T23:59:51Z,30,61,25,26,61,30,25,26,0,3,0,0,0,0,0,0,0,61,0,30,0,61,0,30,0,0,0,0,0,0,0,0,22,39,0,22,27,3,29,32,0,27,22,1,29,32,0,28,22,1,29,32,0,27,22,1,29,32,0,28,22,1,29,32,0,28,22,1,29,32,0,28,22,1,28,33,0,26,23,1,29,32,0,28,22,1,29,32,0,28,22,1,0,61,0,0,30,1,0,61,0,0,30,1,28,33,0,27,23,1,29,32,0,28,22,1,8,1,52,5,4,26
2017-07-08T23:59:58Z,31,62,25,26,62,31,25,26,0,3,0,0,0,0,0,0,0,62,0,31,0,62,0,31,0,0,0,0,0,0,0,0,22,40,0,22,28,3,29,33,0,27,23,1,29,33,0,28,23,1,29,33,0,27,23,1,29,33,0,28,23,1,29,33,0,28,23,1,29,33,0,28,23,1,28,34,0,26,24,1,29,33,0,28,23,1,29,33,0,28,23,1,0,62,0,0,31,1,0,62,0,0,31,1,28,34,0,27,24,1,29,33,0,28,23,1,8,1,53,5,4,27
2017-07-09T23:59:50Z,30,61,25,26,61,30,25,26,0,3,0,0,0,0,0,0,0,61,0,30,0,61,0,30,0,0,0,0,0,0,0,0,22,39,0,22,27,3,29,32,0,27,22,1,29,32,0,28,22,1,29,32,0,27,22,1,29,32,0,28,22,1,29,32,0,28,22,1,29,32,0,28,22,1,28,33,0,26,23,1,29,32,0,28,22,1,29,32,0,28,22,1,0,61,0,0,30,1,0,61,0,0,30,1,28,33,0,27,23,1,29,32,0,28,22,1,8,1,52,5,4,26
2017-07-10T23:59:59Z,31,62,25,26,62,31,25,26,0,3,0,0,0,0,0,0,0,62,0,31,0,62,0,31,0,0,0,0,0,0,0,0,22,40,0,22,28,3,29,33,0,27,23,1,29,33,0,28,23,1,29,33,0,27,23,1,29,33,0,28,23,1,29,33,0,28,23,1,29,33,0,28,23,1,28,34,0,26,24,1,29,33,0,28,23,1,29,33,0,28,23,1,0,62,0,0,31,1,0,62,0,0,31,1,28,34,0,27,24,1,29,33,0,28,23,1,8,1,53,5,4,27
2017-07-11T23:59:52Z,30,61,25,26,61,30,25,26,0,3,0,0,0,0,0,0,0,61,0,30,0,61,0,30,0,0,0,0,0,0,0,0,22,39,0,22,27,3,29,32,0,27,22,1,29,32,0,28,22,1,29,32,0,27,22,1,29,32,0,28,22,1,29,32,0,28,22,1,29,32,0,28,22,1,28,33,0,26,23,1,29,32,0,28,22,1,29,32,0,28,22,1,0,61,0,0,30,1,0,61,0,0,30,1,28,33,0,27,24,1,29,32,0,28,22,1,8,1,52,5,4,26
2017-07-12T23:59:51Z,32,65,26,28,64,32,26,28,0,3,0,0,0,0,0,0,0,64,0,32,0,65,0,32,0,0,0,0,0,0,0,0,23,41,0,24,28,3,30,34,0,29,23,1,30,34,0,30,23,1,30,34,0,29,23,1,30,34,0,30,23,1,30,34,0,30,23,1,30,34,0,30,23,1,29,35,0,28,24,1,30,34,0,30,23,1,31,34,0,30,23,1,0,65,0,0,32,1,0,65,0,0,32,1,29,35,0,29,24,1,31,34,0,30,23,1,8,1,55,6,4,28
2017-07-13T23:59:50Z,32,65,27,28,65,32,27,28,0,3,0,0,0,0,0,0,0,65,0,32,0,65,0,32,0,0,0,0,0,0,0,0,24,41,0,24,28,3,31,34,0,29,23,1,31,34,0,30,23,1,31,34,0,29,23,1,31,34,0,30,23,1,31,34,0,30,23,1,31,34,0,30,23,1,30,35,0,28,24,1,31,34,0,30,23,1,31,34,0,30,23,1,0,65,0,0,32,1,0,65,0,0,32,1,30,35,0,29,24,1,31,34,0,30,23,1,8,1,56,6,4,28
2017-07-14T23:59:58Z,33,66,27,28,66,33,27,28,0,3,0,0,0,0,0,0,0,66,0,33,0,66,0,33,0,0,0,0,0,0,0,0,24,42,0,24,29,3,31,35,0,29,24,1,31,35,0,30,24,1,31,35,0,29,24,1,31,35,0,30,24,1,31,35,0,30,24,1,31,35,0,30,24,1,30,36,0,28,25,1,31,35,0,30,24,1,31,35,0,30,24,1,0,66,0,0,33,1,0,66,0,0,33,1,30,36,0,29,25,1,31,35,0,30,24,1,8,1,57,6,4,29
2017-07-15T23:59:51Z,32,65,27,28,65,32,27,28,0,3,0,0,0,0,0,0,0,65,0,32,0,65,0,32,0,0,0,0,0,0,0,0,24,41,0,24,28,3,31,34,0,29,23,1,31,34,0,30,23,1,31,34,0,29,23,1,31,34,0,30,23,1,31,34,0,30,23,1,31,34,0,30,23,1,30,35,0,28,24,1,31,34,0,30,23,1,31,34,0,30,23,1,0,65,0,0,32,1,0,65,0,0,32,1,30,35,0,29,24,1,31,34,0,30,23,1,8,1,56,6,4,28
2017-07-16T23:59:52Z,32,65,27,28,65,32,27,28,0,3,0,0,0,0,0,0,0,65,0,32,0,65,0,32,0,0,0,0,0,0,0,0,24,41,0,24,28,3,31,34,0,29,23,1,31,34,0,30,23,1,31,34,0,29,23,1,31,34,0,30,23,1,31,34,0,30,23,1,31,34,0,30,23,1,30,35,0,28,24,1,31,34,0,30,23,1,31,34,0,30,23,1,0,65,0,0,32,1,0,65,0,0,32,1,30,35,0,29,24,1,31,34,0,30,23,1,8,1,56,6,4,28
2017-07-17T23:59:50Z,32,65,27,28,65,32,27,28,0,3,0,0,0,0,0,0,0,65,0,32,0,65,0,32,0,0,0,0,0,0,0,0,24,41,0,24,28,3,31,34,0,29,23,1,31,34,0,30,23,1,31,34,0,29,23,1,31,34,0,30,23,1,31,34,0,30,23,1,31,34,0,30,23,1,30,35,0,28,24,1,31,34,0,30,23,1,31,34,0,30,23,1,0,65,0,0,32,1,0,65,0,0,32,1,30,35,0,29,24,1,31,34,0,30,23,1,8,1,56,6,4,28
2017-07-18T23:59:52Z,32,65,27,28,65,32,27,28,0,3,0,0,0,0,0,0,0,65,0,32,0,65,0,32,0,0,0,0,0,0,0,0,24,41,0,24,28,3,31,34,0,29,23,1,31,34,0,30,23,1,31,34,0,29,23,1,31,34,0,30,23,1,31,34,0,30,23,1,31,34,0,30,23,1,30,35,0,28,24,1,31,34,0,30,23,1,31,34,0,30,23,1,0,65,0,0,32,1,0,65,0,0,32,1,30,35,0,29,25,1,31,34,0,30,23,1,8,1,56,6,4,28
2017-07-19T23:59:50Z,32,65,27,28,65,32,27,28,0,3,0,0,0,0,0,0,0,65,0,32,0,65,0,32,0,0,0,0,0,0,0,0,24,41,0,24,28,3,31,34,0,29,23,1,31,34,0,30,23,1,31,34,0,29,23,1,31,34,0,30,23,1,31,34,0,30,23,1,31,34,0,30,23,1,30,35,0,28,24,1,31,34,0,30,23,1,31,34,0,30,23,1,0,65,0,0,32,1,0,65,0,0,32,1,30,35,0,29,24,1,31,34,0,30,23,1,8,1,56,6,4,28
2017-07-20T23:59:51Z,33,68,28,29,68,33,28,29,0,3,0,0,0,0,0,0,0,68,0,33,0,68,0,33,0,0,0,0,0,0,0,0,25,43,0,25,29,3,32,36,0,30,24,1,32,36,0,31,24,1,32,36,0,30,24,1,32,36,0,31,24,1,32,36,0,31,24,1,32,36,0,31,24,1,31,37,0,29,25,1,32,36,0,31,24,1,32,36,0,31,24,1,0,68,0,0,33,1,0,68,0,0,33,1,31,37,0,30,25,1,32,36,0,31,24,1,8,1,59,6,4,29
2017-07-21T23:59:52Z,33,68,28,29,68,33,28,29,0,3,0,0,0,0,0,0,0,68,0,33,0,68,0,33,0,0,0,0,0,0,0,0,25,43,0,25,29,3,32,36,0,30,24,1,32,36,0,31,24,1,32,36,0,30,24,1,32,36,0,31,24,1,32,36,0,31,24,1,32,36,0,31,24,1,31,37,0,29,25,1,32,36,0,31,24,1,32,36,0,31,24,1,0,68,0,0,33,1,0,68,0,0,33,1,31,37,0,30,25,1,32,36,0,31,24,1,8,1,59,6,4,29
2017-07-22T23:59:52Z,33,68,28,29,68,33,28,29,0,3,0,0,0,0,0,0,0,68,0,33,0,68,0,33,0,0,0,0,0,0,0,0,25,43,0,25,29,3,32,36,0,30,24,1,32,36,0,31,24,1,32,36,0,30,24,1,32,36,0,31,24,1,32,36,0,31,24,1,32,36,0,31,24,1,31,37,0,29,25,1,32,36,0,31,24,1,32,36,0,31,24,1,0,68,0,0,33,1,0,68,0,0,33,1,31,37,0,30,25,1,32,36,0,31,24,1,8,1,59,6,4,29
2017-07-23T23:59:58Z,34,69,28,29,69,34,28,29,0,3,0,0,0,0,0,0,0,69,0,34,0,69,0,34,0,0,0,0,0,0,0,0,25,44,0,25,30,3,32,37,0,30,25,1,32,37,0,31,25,1,32,37,0,30,25,1,32,37,0,31,25,1,32,37,0,31,25,1,32,37,0,31,25,1,31,38,0,29,26,1,32,37,0,31,25,1,32,37,0,31,25,1,0,69,0,0,34,1,0,69,0,0,34,1,31,38,0,30,26,1,32,37,0,31,25,1,8,1,60,6,4,30
2017-07-24T23:59:52Z,32,66,28,29,66,32,28,29,0,3,0,0,0,0,0,0,0,66,0,32,0,66,0,32,0,0,0,0,0,0,0,0,25,41,0,25,28,3,31,35,0,29,23,1,31,35,0,30,23,1,31,35,0,29,23,1,31,35,0,30,23,1,31,35,0,30,23,1,31,35,0,30,23,1,30,36,0,28,24,1,31,35,0,30,23,1,31,35,0,30,23,1,0,66,0,0,32,1,0,66,0,0,32,1,30,36,0,29,24,1,31,35,0,30,23,1,6,1,59,5,4,29
2017-07-25T23:59:52Z,32,66,28,29,66,32,28,29,0,3,0,0,0,0,0,0,0,66,0,32,0,66,0,32,0,0,0,0,0,0,0,0,25,41,0,25,28,3,31,35,0,29,23,1,31,35,0,30,23,1,31,35,0,29,23,1,31,35,0,30,23,1,31,35,0,30,23,1,31,35,0,30,23,1,30,36,0,28,24,1,31,35,0,30,23,1,31,35,0,30,23,1,0,66,0,0,32,1,0,66,0,0,32,1,30,36,0,29,24,1,31,35,0,30,23,1,6,1,59,5,4,29
2017-07-26T23:59:58Z,33,67,28,29,67,33,28,29,0,3,0,0,0,0,0,0,0,67,0,33,0,67,0,33,0,0,0,0,0,0,0,0,25,42,0,25,29,3,31,36,0,29,24,1,31,36,0,30,24,1,31,36,0,29,24,1,31,36,0,30,24,1,31,36,0,30,24,1,31,36,0,30,24,1,30,37,0,28,25,1,31,36,0,30,24,1,31,36,0,30,24,1,0,67,0,0,33,1,0,67,0,0,33,1,30,37,0,29,25,1,31,36,0,30,24,1,6,1,60,5,4,30
2017-07-27T23:59:50Z,32,66,28,29,66,32,28,29,0,3,0,0,0,0,0,0,0,66,0,32,0,66,0,32,0,0,0,0,0,0,0,0,25,41,0,25,28,3,31,35,0,29,23,1,31,35,0,30,23,1,31,35,0,29,23,1,31,35,0,30,23,1,31,35,0,30,23,1,31,35,0,30,23,1,30,36,0,28,24,1,31,35,0,30,23,1,31,35,0,30,23,1,0,66,0,0,32,1,0,66,0,0,32,1,30,36,0,29,24,1,31,35,0,30,23,1,6,1,59,5,4,29
2017-07-28T23:59:52Z,32,66,28,29,66,32,28,29,0,3,0,0,0,0,0,0,0,66,0,32,0,66,0,32,0,0,0,0,0,0,0,0,25,41,0,25,28,3,31,35,0,29,23,1,31,35,0,30,23,1,31,35,0,29,23,1,31,35,0,30,23,1,31,35,0,30,23,1,31,35,0,30,23,1,30,36,0,28,24,1,31,35,0,30,23,1,31,35,0,30,23,1,0,66,0,0,32,1,0,66,0,0,32,1,30,36,0,29,24,1,31,35,0,30,23,1,6,1,59,5,4,29
2017-07-29T23:59:51Z,31,65,28,28,65,31,28,28,0,3,0,0,0,0,0,0,0,65,0,31,0,65,0,31,0,0,0,0,0,0,0,0,25,40,0,25,27,3,31,34,0,29,22,1,31,34,0,30,22,1,31,34,0,29,22,1,31,34,0,30,22,1,31,34,0,30,22,1,31,34,0,30,22,1,30,35,0,28,23,1,31,34,0,30,22,1,31,34,0,30,22,1,0,65,0,0,31,1,0,65,0,0,31,1,30,35,0,29,23,1,31,34,0,30,22,1,6,1,58,5,3,28
2017-07-30T23:59:52Z,33,67,29,30,67,33,29,30,0,3,0,0,0,0,0,0,0,67,0,33,0,67,0,33,0,0,0,0,0,0,0,0,25,42,0,26,29,3,31,36,0,30,24,1,31,36,0,31,24,1,31,36,0,30,24,1,31,36,0,31,24,1,31,36,0,31,24,1,31,36,0,31,24,1,30,37,0,29,25,1,31,36,0,31,24,1,31,36,0,31,24,1,0,67,0,0,33,1,0,67,0,0,33,1,30,37,0,30,25,1,31,36,0,31,24,1,6,1,60,5,5,30
2017-07-31T23:59:49Z,33,67,29,30,67,33,29,30,0,3,0,0,0,0,0,0,0,67,0,33,0,67,0,33,0,0,0,0,0,0,0,0,25,42,0,26,29,3,31,36,0,30,24,1,31,36,0,31,24,1,31,36,0,30,24,1,31,36,0,31,24,1,31,36,0,31,24,1,31,36,0,31,24,1,30,37,0,28,25,1,31,36,0,30,24,1,31,36,0,30,24,1,0,67,0,0,33,1,0,67,0,0,33,1,30,37,0,29,25,1,31,36,0,30,24,1,6,1,60,5,5,30
2017-08-01T23:59:52Z,33,67,29,30,67,33,29,30,0,3,0,0,0,0,0,0,0,67,0,33,0,67,0,33,0,0,0,0,0,0,0,0,25,42,0,26,29,3,31,36,0,30,24,1,31,36,0,31,24,1,31,36,0,30,24,1,31,36,0,31,24,1,31,36,0,31,24,1,31,36,0,31,24,1,30,37,0,28,25,1,31,36,0,30,24,1,31,36,0,30,24,1,0,67,0,0,33,1,0,67,0,0,33,1,30,37,0,29,25,1,31,36,0,30,24,1,6,1,60,5,5,30
2017-08-02T23:59:52Z,34,69,29,30,69,34,29,30,0,3,0,0,0,0,0,0,0,69,0,34,0,69,0,34,0,0,0,0,0,0,0,0,25,44,0,26,30,3,32,37,0,31,25,1,32,37,0,32,25,1,32,37,0,31,25,1,32,37,0,32,25,1,32,37,0,32,25,1,32,37,0,32,25,1,31,38,0,30,26,1,32,37,0,32,25,1,32,37,0,32,25,1,0,69,0,0,34,1,0,69,0,0,34,1,31,38,0,31,26,1,32,37,0,32,25,1,8,1,60,6,5,30
2017-08-03T23:59:51Z,33,68,28,29,68,33,28,29,0,3,0,0,0,0,0,0,0,68,0,33,0,68,0,33,0,0,0,0,0,0,0,0,25,43,0,25,29,3,32,36,0,30,24,1,32,36,0,31,24,1,32,36,0,30,24,1,32,36,0,31,24,1,32,36,0,31,24,1,32,36,0,31,24,1,31,37,0,29,25,1,32,36,0,31,24,1,32,36,0,31,24,1,0,68,0,0,33,1,0,68,0,0,33,1,31,37,0,30,25,1,32,36,0,31,24,1,8,1,59,6,4,29
2017-08-04T23:59:59Z,34,69,28,29,69,34,28,29,0,3,0,0,0,0,0,0,0,69,0,34,0,69,0,34,0,0,0,0,0,0,0,0,25,44,0,25,30,3,32,37,0,30,25,1,32,37,0,31,25,1,32,37,0,30,25,1,32,37,0,31,25,1,32,37,0,31,25,1,32,37,0,31,25,1,31,38,0,29,26,1,32,37,0,31,25,1,32,37,0,31,25,1,0,69,0,0,34,1,0,69,0,0,34,1,31,38,0,30,26,1,32,37,0,31,25,1,8,1,60,6,4,30
2017-08-05T23:59:52Z,34,69,28,29,69,34,28,29,0,3,0,0,0,0,0,0,1,68,1,34,0,69,0,34,0,0,0,0,0,0,0,0,25,44,0,25,30,3,33,36,0,31,25,1,33,36,0,32,25,1,33,36,0,31,24,1,33,36,0,32,24,1,33,36,0,32,24,1,33,36,0,32,24,1,31,38,0,29,26,1,33,36,0,32,24,1,33,36,0,32,24,1,0,69,0,0,34,1,0,69,0,0,34,1,31,38,0,31,26,1,33,36,0,32,24,1,8,1,60,7,4,30
2017-08-06T23:59:52Z,34,71,29,30,71,34,29,30,0,3,0,0,0,0,0,0,1,70,1,34,0,71,0,34,0,0,0,0,0,0,0,0,26,45,0,26,30,3,34,37,0,31,25,1,34,37,0,32,25,1,34,37,0,31,25,1,34,37,0,32,25,1,34,37,0,32,25,1,34,37,0,32,25,1,32,39,0,30,26,1,34,37,0,32,25,1,34,37,0,32,25,1,0,71,0,0,34,1,0,71,0,0,34,1,32,39,0,31,26,1,34,37,0,32,25,1,8,1,62,7,4,30
2017-08-07T23:59:51Z,34,70,29,30,70,34,29,30,0,3,0,0,0,0,0,0,0,70,1,34,0,70,0,34,0,0,0,0,0,0,0,0,26,44,0,26,30,3,33,37,0,31,25,1,33,37,0,32,25,1,33,37,0,31,25,1,33,37,0,32,25,1,33,37,0,32,25,1,33,37,0,32,25,1,32,38,0,30,26,1,33,37,0,32,25,1,33,37,0,32,25,1,0,70,0,0,34,1,0,70,0,0,34,1,32,38,0,31,26,1,33,37,0,32,25,1,8,1,61,7,4,30
2017-08-08T23:59:52Z,34,70,29,30,70,34,29,30,0,3,0,0,0,0,0,0,0,70,1,34,0,70,0,34,0,0,0,0,0,0,0,0,26,44,0,26,30,3,33,37,0,31,25,1,33,37,0,32,25,1,33,37,0,31,25,1,33,37,0,32,25,1,33,37,0,32,25,1,33,37,0,32,25,1,32,38,0,30,26,1,33,37,0,32,25,1,33,37,0,32,25,1,0,70,0,0,34,1,0,70,0,0,34,1,32,38,0,31,26,1,33,37,0,32,25,1,8,1,61,7,4,30
2017-08-09T23:59:51Z,32,65,27,28,65,32,27,28,0,3,0,0,0,0,0,0,0,65,1,32,0,65,0,32,0,0,0,0,0,0,0,0,24,41,0,24,28,3,30,35,0,29,24,1,30,35,0,30,24,1,30,35,0,29,24,1,30,35,0,30,24,1,30,35,0,30,24,1,30,35,0,30,24,1,29,36,0,28,25,1,30,35,0,30,24,1,30,35,0,30,24,1,0,65,0,0,32,1,0,65,0,0,32,1,29,36,0,29,25,1,30,35,0,30,24,1,5,1,59,6,4,29
2017-08-10T23:59:51Z,32,65,27,28,65,32,27,28,0,3,0,0,0,0,0,0,0,65,1,32,0,65,0,32,0,0,0,0,0,0,0,0,24,41,0,24,28,3,30,35,0,29,24,1,30,35,0,30,24,1,30,35,0,29,24,1,30,35,0,30,24,1,30,35,0,30,24,1,30,35,0,30,24,1,29,36,0,28,25,1,30,35,0,30,24,1,30,35,0,30,24,1,0,65,0,0,32,1,0,65,0,0,32,1,29,36,0,29,25,1,30,35,0,30,24,1,5,1,59,6,4,29
2017-08-11T23:59:59Z,34,67,28,29,67,34,28,29,0,3,0,0,0,0,0,0,0,67,1,34,0,67,0,34,0,0,0,0,0,0,0,0,24,43,0,24,30,3,30,37,0,29,26,1,30,37,0,30,26,1,30,37,0,29,26,1,30,37,0,30,26,1,30,37,0,30,26,1,30,37,0,30,26,1,29,38,0,28,27,1,30,37,0,30,26,1,30,37,0,30,26,1,0,67,0,0,34,1,0,67,0,0,34,1,29,38,0,29,27,1,30,37,0,30,26,1,5,1,61,6,4,31
2017-08-12T23:59:59Z,34,67,28,29,67,34,28,29,0,3,0,0,0,0,0,0,0,67,1,34,0,67,0,34,0,0,0,0,0,0,0,0,24,43,0,24,30,3,30,37,0,29,26,1,30,37,0,30,26,1,30,37,0,29,26,1,30,37,0,30,26,1,30,37,0,30,26,1,30,37,0,30,26,1,29,38,0,28,27,1,30,37,0,30,26,1,30,37,0,30,26,1,0,67,0,0,34,1,0,67,0,0,34,1,29,38,0,30,27,1,30,37,0,30,26,1,5,1,61,6,4,31
2017-08-13T23:59:49Z,33,66,28,29,66,33,28,29,0,3,0,0,0,0,0,0,0,66,1,33,0,66,0,33,0,0,0,0,0,0,0,0,24,42,0,24,29,3,30,36,0,29,25,1,30,36,0,30,25,1,30,36,0,29,25,1,30,36,0,30,25,1,30,36,0,30,25,1,30,36,0,30,25,1,29,37,0,28,26,1,30,36,0,30,25,1,30,36,0,30,25,1,0,66,0,0,33,1,0,66,0,0,33,1,29,37,0,29,26,1,30,36,0,30,25,1,5,1,60,6,4,30
2017-08-14T23:59:51Z,33,66,28,29,66,33,28,29,0,3,0,0,0,0,0,0,0,66,1,33,0,66,0,33,0,0,0,0,0,0,0,0,24,42,0,24,29,3,30,36,0,29,25,1,30,36,0,30,25,1,30,36,0,29,25,1,30,36,0,30,25,1,30,36,0,30,25,1,30,36,0,30,25,1,29,37,0,28,26,1,30,36,0,30,25,1,30,36,0,30,25,1,0,66,0,0,33,1,0,66,0,0,33,1,29,37,0,29,26,1,30,36,0,30,25,1,5,1,60,6,4,30
2017-08-15T23:59:50Z,33,66,28,29,66,33,28,29,0,3,0,0,0,0,0,0,0,66,1,33,0,66,0,33,0,0,0,0,0,0,0,0,24,42,0,24,29,3,30,36,0,29,25,1,30,36,0,30,25,1,30,36,0,29,25,1,30,36,0,30,25,1,30,36,0,30,25,1,30,36,0,30,25,1,29,37,0,28,26,1,30,36,0,30,25,1,30,36,0,30,25,1,0,66,0,0,33,1,0,66,0,0,33,1,29,37,0,29,26,1,30,36,0,30,25,1,5,1,60,6,4,30
2017-08-16T23:59:52Z,33,66,28,29,66,33,28,29,0,3,0,0,0,0,0,0,0,66,1,33,0,66,0,33,0,0,0,0,0,0,0,0,24,42,0,24,29,3,30,36,0,29,25,1,30,36,0,30,25,1,30,36,0,29,25,1,30,36,0,30,25,1,30,36,0,30,25,1,30,36,0,30,25,1,29,37,0,28,26,1,30,36,0,30,25,1,30,36,0,30,25,1,0,66,0,0,33,1,0,66,0,0,33,1,29,37,0,29,26,1,30,36,0,30,25,1,5,1,60,6,4,30
2017-08-17T23:59:59Z,34,67,28,29,67,34,28,29,0,3,0,0,0,0,0,0,0,67,1,34,0,67,0,34,0,0,0,0,0,0,0,0,24,43,0,24,30,3,30,37,0,29,26,1,30,37,0,30,26,1,30,37,0,29,26,1,30,37,0,30,26,1,30,37,0,30,26,1,30,37,0,30,26,1,29,38,0,28,27,1,30,37,0,30,26,1,30,37,0,30,26,1,0,67,0,0,34,1,0,67,0,0,34,1,29,38,0,29,27,1,30,37,0,30,26,1,5,1,61,7,3,31
2017-08-18T23:59:52Z,34,67,28,29,67,34,28,29,0,3,0,0,0,0,0,0,0,67,1,34,0,67,0,34,0,0,0,0,0,0,0,0,24,43,0,24,30,3,30,37,0,29,26,1,30,37,0,30,26,1,30,37,0,29,26,1,30,37,0,30,26,1,30,37,0,30,26,1,30,37,0,30,26,1,29,38,0,28,27,1,30,37,0,30,26,1,30,37,0,30,26,1,0,67,0,0,34,1,0,67,0,0,34,1,29,38,0,29,27,1,30,37,0,30,26,1,5,1,61,7,3,31
2017-08-19T23:59:51Z,33,66,28,29,66,33,28,29,0,3,0,0,0,0,0,0,0,66,1,33,0,66,0,33,0,0,0,0,0,0,0,0,24,42,0,24,29,3,30,36,0,29,25,1,30,36,0,30,25,1,30,36,0,29,25,1,30,36,0,30,25,1,30,36,0,30,25,1,30,36,0,30,25,1,29,37,0,28,26,1,30,36,0,30,25,1,30,36,0,30,25,1,0,66,0,0,33,1,0,66,0,0,33,1,29,37,0,29,26,1,30,36,0,30,25,1,5,1,60,6,4,30
2017-08-20T23:59:52Z,33,66,28,29,66,33,28,29,0,3,0,0,0,0,0,0,0,66,1,33,0,66,0,33,0,0,0,0,0,0,0,0,24,42,0,24,29,3,30,36,0,29,25,1,30,36,0,30,25,1,30,36,0,29,25,1,30,36,0,30,25,1,30,36,0,30,25,1,30,36,0,30,25,1,29,37,0,28,26,1,30,36,0,30,25,1,30,36,0,30,25,1,0,66,0,0,33,1,0,66,0,0,33,1,29,37,0,29,26,1,30,36,0,30,25,1,5,1,60,6,4,30
2017-08-21T23:59:51Z,34,68,28,29,66,33,28,29,0,3,0,0,0,0,0,0,0,68,1,34,0,66,0,33,0,0,0,0,0,0,0,0,24,43,0,24,30,3,31,36,0,30,25,1,31,36,0,31,25,1,30,36,0,29,25,1,31,36,0,30,25,1,31,36,0,30,25,1,31,36,0,30,25,1,30,37,0,28,26,1,31,36,0,30,25,1,32,36,0,31,25,1,0,68,0,0,34,1,0,68,0,0,34,1,30,37,0,30,26,1,30,36,0,30,25,1,5,1,61,6,4,31
2017-08-22T23:59:59Z,34,67,28,29,67,34,28,29,0,3,0,0,0,0,0,0,0,67,1,34,0,67,0,34,0,0,0,0,0,0,0,0,24,43,0,24,30,3,30,37,0,29,26,1,30,37,0,30,26,1,30,37,0,29,26,1,30,37,0,30,26,1,30,37,0,30,26,1,30,37,0,30,26,1,29,38,0,28,27,1,30,37,0,30,26,1,30,37,0,30,26,1,0,67,0,0,34,1,0,67,0,0,34,1,29,38,0,29,27,1,30,37,0,30,26,1,5,1,61,6,4,31
2017-08-23T23:59:58Z,33,66,28,28,66,33,28,28,0,3,0,0,0,0,0,0,0,66,1,33,0,66,0,33,0,0,0,0,0,0,0,0,24,42,0,24,29,3,30,36,0,29,25,1,30,36,0,30,25,1,30,36,0,29,25,1,30,36,0,30,25,1,30,36,0,30,25,1,30,36,0,30,25,1,29,37,0,28,26,1,30,36,0,30,25,1,30,36,0,30,25,1,0,66,0,0,33,1,0,66,0,0,33,1,29,37,0,29,26,1,30,36,0,30,25,1,5,1,60,6,3,30